Regional Weather Roundup
Issued by NWS

Home | Current Version | Previous Version | Text Only | Print | Product List | Glossary On
Versions: 1 2 3 4 5 6 7 8 9 10 11 12 13 14 15 16 17 18 19 20 21 22 23 24 25 26 27 28 29 30 31 32 33 34 35 36 37 38 39 40 41 42 43 44 45 46 47 48 49 50
000
ASCA44 KEWX 301820
RWRMX

LATIN AMERICA AND CARIBBEAN REGIONAL WEATHER ROUNDUP
NATIONAL WEATHER SERVICE AUSTIN/SAN ANTONIO TX
100 PM CDT SUN AUG 30 2015

NOTE: "FAIR" INDICATED FEW OR NO CLOUDS BELOW 12,000 FEET WITH NO
SIGNIFICANT WEATHER AND/OR OBSTRUCTIONS TO VISIBILITY.

BAJA CALIFORNIA

CITY           SKY/WX    TMP DP  RH WIND       PRES   REMARKS
LORETO         MOSUNNY   93  81  66 NE14      29.83R HX 113
LA PAZ         SUNNY     95  66  38 S8        29.86  HX  98
MEXICALI       SUNNY    102  45  14 W9        29.80  HX  98
S.J. DEL CABO  SUNNY     97  64  34 SE12      29.87S HX  99
TIJUANA        SUNNY     82  64  54 W3        29.96R

NORTHWESTERN MEXICO

CITY           SKY/WX    TMP DP  RH WIND       PRES   REMARKS
CULIACAN       PTSUNNY   97  79  56 NW6       29.88  HX 115
DURANGO        SUNNY     79  30  17 NE6       30.28F
GUAYMAS        SUNNY     97  75  49 CALM      29.81  HX 109
HERMOSILLO     SUNNY     99  66  34 SE6       29.91  HX 102
CD. JUAREZ     SUNNY     90  57  33 E14       30.12
LOS MOCHIS     PTSUNNY   95  72  46 CALM      29.88S HX 103
OBREGON        MOSUNNY   97  64  34 NE2       29.85  HX  99

NORTHEASTERN MEXICO

CITY           SKY/WX    TMP DP  RH WIND       PRES   REMARKS
CHIHUAHUA      SUNNY     82  46  28 N6        30.19
MATAMOROS      PTSUNNY   91  75  59 E9        30.01  HX 102
MONCLOVA         N/A    N/A N/A N/A MISG        N/A
MONTERREY      MOSUNNY   88  66  48 SE9       30.01F HX  90
NUEVO LAREDO   MOSUNNY   91  64  40 CALM      30.00  HX  93
PIEDRAS NEGRAS MOSUNNY   90  68  48 SE7       30.05  HX  93
REYNOSA        MOSUNNY   90  68  48 S5        29.98  HX  93
SALTILLO       MOSUNNY   84  64  51 CALM      30.21F
TORREON        PTSUNNY   86  52  30 SE5       30.13F
CD. VICTORIA   MOSUNNY   91  64  40 E3        30.00  HX  93

WESTERN MEXICO

CITY           SKY/WX    TMP DP  RH WIND       PRES   REMARKS
AGUASCALIENTES SUNNY     75  48  38 SE3       30.30
COLIMA         PTSUNNY   82  73  74 CALM      30.04F
DEL BAJIO      MOSUNNY   75  50  41 CALM      30.32F
GUADALAJARA    MOSUNNY   77  61  57 NE7       30.21
MANZANILLO     MOSUNNY   91  77  62 SW12      29.87F HX 105
MAZATLAN       MOSUNNY   88  79  74 S12       29.85F HX 102
P. VALLARTA    MOSUNNY   90  79  70 S8        29.87F HX 105
URUAPAN        PTSUNNY   73  64  73 S7        30.21F
ZACATECAS      MOSUNNY   75  48  38 SE7       30.31F

CENTRAL MEXICO

CITY           SKY/WX    TMP DP  RH WIND       PRES   REMARKS
CUERNAVACA     PTSUNNY   77  59  53 S6        30.18F
MEXICO CITY    MOSUNNY   72  50  46 NE5       30.34F
MORELIA        MOSUNNY   75  55  50 SW5       30.27
POZA RICA      PTSUNNY   91  77  62 E7        30.01F HX 105
PUEBLA         PTSUNNY   73  52  46 SE6       30.35F
QUERETARO      PTSUNNY   75  57  53 NE5       30.32F
S. LUIS POTOSI MOSUNNY   73  48  40 E5        30.28F
TAMPICO        PTSUNNY   82  73  74 N8        30.00S
TOLUCA         PTSUNNY   64  50  59 S5        30.42

SOUTHERN MEXICO

CITY           SKY/WX    TMP DP  RH WIND       PRES   REMARKS
ACAPULCO       PTSUNNY   86  79  79 W6        29.88F HX  99
B. DE HUATULCO PTSUNNY   88  75  66 W8        29.97  HX  97
OAXACA         CLOUDY    73  57  56 CALM      30.26S
P. ESCONDIDO   PTSUNNY   88  75  66 S9        30.00S HX  97
VERACRUZ       CLOUDY    77  75  94 E6        30.00F
ZIHUATANEJO    MOSUNNY   93  77  59 SW12      29.89F HX 107

YUCATAN PENINSULA

CITY           SKY/WX    TMP DP  RH WIND       PRES   REMARKS
CAMPECHE       PTSUNNY   90  79  70 N6        29.94S HX 105
CANCUN         MOSUNNY   90  81  74 NE12      29.96F HX 108
CHETUMAL       PTSUNNY   91  81  70 CALM      29.94  HX 110
CD. DEL CARMEN PTSUNNY   84  73  70 NE9       29.95  HX  91
COZUMEL        PTSUNNY   81  77  89 SE5       29.97F THUNDER
MERIDA         PTSUNNY   93  73  52 E9        29.96F HX 102
MINATITLAN     PTSUNNY   86  68  54 CALM      29.92
TAPACHULA      MOSUNNY   90  79  70 CALM      29.89F HX 105
TUX. GUTIERREZ MOSUNNY   84  64  51 S6        29.98F
VILLAHERMOSA   PTSUNNY   90  75  62 CALM      29.95F HX 100

CENTRAL AMERICA

CITY           SKY/WX    TMP DP  RH WIND       PRES   REMARKS
BELIZE CITY    MOSUNNY   91  79  66 NE9       29.93F HX 107

CARIBBEAN

CITY           SKY/WX    TMP DP  RH WIND       PRES   REMARKS
ARUBA          MOSUNNY   91  75  59 E24       29.83F HX 102
KINGSTON       MOSUNNY   93  79  62 SE28      29.92S HX 110
NASSAU         PTSUNNY   88  81  79 SE9       30.06F HX 105
SAN JUAN       MOSUNNY   86  77  74 E10       30.01F HX  97
SANTO DOMINGO  PTSUNNY   90  75  62 S9        29.97S HX 100
ST. CROIX      MOSUNNY   88  79  74 E13       30.01  HX 102
ST. KITTS      MOSUNNY   88  77  70 E14       30.00F HX 100
ST. MAARTEN    MOSUNNY   86  77  74 E10       30.00S HX  97
ST. THOMAS     SUNNY     90  77  66 SE15      30.01  HX 102

$$




USA.gov is the U.S. government's official web portal to all federal, state and local government web resources and services.